Home > Weather > Niterói > Past weeks

Flag for Brazil Weather for the Past 2 Weeks in Niterói, Rio de Janeiro, Brazil

Now
77 °F

Passing clouds.


Feels Like: 79 °F
Forecast: N/A
Wind: 18 mph from South

Location: Rio De Janeiro Airport

Current Time: Feb 12, 2016 at 8:55:34 PM

Latest Report: Feb 12, 2016 at 8:00 PM


Visibility: N/A

Pressure: 29.92 "Hg

Humidity: 74%

Dew point: 68 °F

Location of NiteróiLocation

Historic Weather in Niterói — Graph

°F

Niterói Temperature Yesterday

Maximum temperature yesterday: 86 °F (at 2:00 PM)
Minimum temperature yesterday: 77 °F (at 9:00 PM)
Average temperature yesterday: 81 °F

High & Low Weather Summary for the Past Weeks

 TemperatureHumidityPressure
High99 °F (Jan 31, 2:00 PM)100% (Feb 3, 4:00 AM)30.01 "Hg (Feb 3, 4:00 AM)
Low73 °F (Feb 12, 6:00 AM)39% (Jan 31, 2:00 PM)29.83 "Hg (Feb 10, 1:00 PM)
Average84 °F77%29.93 "Hg
* Reported Jan 28 7:00 PM — Feb 12 7:00 PM, Niterói, Weather by CustomWeather, © 2016

Note: Actual official high and low records may vary slightly from our data, if they occured in-between our weather recording intervals... More about our weather records

Advertising

Niterói Weather History for the Previous 24 Hours

 ConditionsComfort  
Time TempWeatherWind HumidityBarometerVisibility
7:00 PM
Fri, Feb 12
81 °FPassing clouds.10 mph66%29.89 "HgN/A
6:00 PM84 °FPassing clouds.12 mph58%29.89 "HgN/A
5:00 PM86 °FPassing clouds.12 mph55%29.89 "HgN/A
4:00 PM86 °FPassing clouds.12 mph55%29.92 "HgN/A
3:00 PM88 °FPassing clouds.12 mph55%29.92 "HgN/A
2:00 PM88 °FScattered clouds.12 mph55%29.95 "HgN/A
1:00 PM88 °FScattered clouds.13 mph55%29.95 "HgN/A
12:00 PM88 °FScattered clouds.10 mph55%29.98 "HgN/A
11:00 AM86 °FScattered clouds.7 mph59%29.98 "HgN/A
10:00 AM86 °FScattered clouds.6 mph55%29.98 "HgN/A
9:00 AM82 °FScattered clouds.3 mph66%29.98 "HgN/A
8:00 AM82 °FPassing clouds.3 mph66%29.95 "HgN/A
7:00 AM77 °FPassing clouds.3 mph74%29.92 "HgN/A
6:00 AM73 °FPassing clouds.7 mph83%29.92 "HgN/A
5:00 AM75 °FPassing clouds.8 mph78%29.92 "HgN/A
4:00 AM75 °FPassing clouds.7 mph83%29.92 "HgN/A
3:00 AM77 °FPassing clouds.8 mph83%29.92 "HgN/A
2:00 AM77 °FMostly cloudy.10 mph83%29.92 "Hg5 mi
1:00 AM77 °FMostly cloudy.12 mph83%29.92 "Hg5 mi
12:00 AM77 °FLight rain. Overcast.7 mph94%29.92 "Hg4 mi
11:00 PM
Thu, Feb 11
77 °FLight rain. Overcast.9 mph94%29.92 "Hg4 mi
10:00 PM77 °FOvercast.1 mph94%29.92 "Hg6 mi
9:00 PM77 °FMostly cloudy.5 mph94%29.89 "Hg6 mi
8:00 PM79 °FMostly cloudy.3 mph84%29.89 "Hg6 mi
Weather by CustomWeather, © 2016

See weather overviewHow to use our weather pages